�������l�o���
Date,Time,MP-1(��Sv/h),MP-2(��Sv/h),MP-3(��Sv/h),MP-4(��Sv/h),MP-5(��Sv/h),MP-6(��Sv/h),MP-7(��Sv/h),MP-8(��Sv/h),����,����(m/s),���J
2017/12/12,00:00,0.894,1.480,0.932,1.753,1.189,0.498,0.882,0.847,��,14.9,��
2017/12/12,00:10,0.895,1.478,0.929,1.753,1.188,0.497,0.881,0.848,��,11.7,��
2017/12/12,00:20,0.894,1.477,0.931,1.753,1.192,0.498,0.881,0.848,��,14.6,��
2017/12/12,00:30,0.893,1.479,0.928,1.755,1.189,0.496,0.880,0.847,��,13.1,��
2017/12/12,00:40,0.894,1.480,0.929,1.754,1.185,0.496,0.881,0.846,��,18.5,��
2017/12/12,00:50,0.893,1.479,0.930,1.754,1.191,0.495,0.883,0.847,��,15.0,��
2017/12/12,01:00,0.893,1.477,0.928,1.757,1.188,0.495,0.882,0.846,��,16.4,��
2017/12/12,01:10,0.893,1.476,0.930,1.750,1.189,0.496,0.881,0.846,��,12.7,��
2017/12/12,01:20,0.891,1.477,0.929,1.750,1.188,0.496,0.880,0.847,��,10.9,��
2017/12/12,01:30,0.889,1.478,0.929,1.750,1.190,0.496,0.880,0.844,��,12.5,��
2017/12/12,01:40,0.890,1.477,0.929,1.753,1.189,0.495,0.882,0.846,��,10.5,��
2017/12/12,01:50,0.893,1.480,0.930,1.751,1.192,0.494,0.881,0.848,��,10.6,��
2017/12/12,02:00,0.891,1.478,0.932,1.754,1.190,0.496,0.879,0.847,��,8.6,��
2017/12/12,02:10,0.892,1.478,0.931,1.755,1.191,0.497,0.880,0.846,��,8.6,��
2017/12/12,02:20,0.891,1.479,0.930,1.752,1.189,0.497,0.880,0.846,��,8.8,��
2017/12/12,02:30,0.893,1.479,0.931,1.753,1.190,0.495,0.879,0.846,��,8.1,��
2017/12/12,02:40,0.894,1.478,0.928,1.754,1.193,0.495,0.879,0.846,��,10.5,��
2017/12/12,02:50,0.892,1.480,0.932,1.755,1.188,0.497,0.880,0.845,���쐼,8.0,��
2017/12/12,03:00,0.891,1.477,0.932,1.752,1.189,0.498,0.880,0.845,��,10.5,��
2017/12/12,03:10,0.892,1.476,0.932,1.750,1.189,0.496,0.880,0.847,��,9.7,��
2017/12/12,03:20,0.891,1.477,0.932,1.755,1.190,0.497,0.880,0.845,��,9.9,��
2017/12/12,03:30,0.893,1.478,0.933,1.752,1.190,0.497,0.881,0.847,��,9.7,��
2017/12/12,03:40,0.892,1.478,0.932,1.751,1.190,0.496,0.881,0.846,��,8.7,��
2017/12/12,03:50,0.892,1.478,0.931,1.750,1.191,0.497,0.879,0.844,��,8.3,��
2017/12/12,04:00,0.892,1.478,0.930,1.753,1.190,0.497,0.879,0.846,��,8.5,��
2017/12/12,04:10,0.893,1.476,0.932,1.755,1.191,0.495,0.879,0.846,��,7.6,��
2017/12/12,04:20,0.890,1.479,0.931,1.754,1.189,0.497,0.879,0.844,��,7.5,��
2017/12/12,04:30,0.891,1.478,0.931,1.754,1.189,0.495,0.880,0.845,���k��,8.9,�L
2017/12/12,04:40,0.893,1.475,0.931,1.752,1.190,0.497,0.880,0.846,���k��,8.1,�L
2017/12/12,04:50,0.892,1.476,0.931,1.748,1.190,0.496,0.879,0.846,��,11.6,�L
2017/12/12,05:00,0.893,1.477,0.931,1.751,1.191,0.495,0.879,0.845,��,9.7,�L
2017/12/12,05:10,0.891,1.478,0.931,1.751,1.190,0.496,0.879,0.846,��,10.2,�L
2017/12/12,05:20,0.891,1.477,0.930,1.755,1.188,0.497,0.880,0.845,��,10.0,�L
2017/12/12,05:30,0.893,1.476,0.932,1.752,1.189,0.497,0.879,0.844,���쐼,7.5,�L
2017/12/12,05:40,0.894,1.478,0.932,1.752,1.190,0.499,0.879,0.845,���쐼,6.6,�L
2017/12/12,05:50,0.893,1.476,0.933,1.752,1.189,0.499,0.877,0.846,��,8.6,�L
2017/12/12,06:00,0.891,1.474,0.931,1.752,1.186,0.498,0.879,0.847,��,9.2,��
2017/12/12,06:10,0.891,1.478,0.931,1.751,1.186,0.496,0.878,0.845,���쐼,7.3,��
2017/12/12,06:20,0.890,1.477,0.930,1.750,1.184,0.497,0.878,0.847,���쐼,7.1,��
2017/12/12,06:30,0.889,1.475,0.930,1.752,1.186,0.496,0.879,0.846,���쐼,7.3,��
2017/12/12,06:40,0.891,1.475,0.929,1.749,1.184,0.498,0.880,0.847,���쐼,7.0,��
2017/12/12,06:50,0.891,1.476,0.930,1.751,1.184,0.496,0.879,0.846,���쐼,6.6,��
2017/12/12,07:00,0.892,1.472,0.929,1.751,1.186,0.495,0.878,0.844,���쐼,6.8,��
2017/12/12,07:10,0.890,1.474,0.929,1.753,1.186,0.495,0.879,0.846,��,8.6,��
2017/12/12,07:20,0.891,1.473,0.929,1.751,1.188,0.496,0.877,0.848,��,9.1,��
2017/12/12,07:30,0.890,1.475,0.930,1.750,1.187,0.497,0.877,0.845,��,9.0,��
2017/12/12,07:40,0.890,1.476,0.930,1.752,1.188,0.496,0.880,0.845,���쐼,9.2,�L
2017/12/12,07:50,0.890,1.476,0.931,1.752,1.188,0.497,0.878,0.844,���쐼,8.0,��
2017/12/12,08:00,0.891,1.473,0.929,1.751,1.187,0.495,0.877,0.845,���쐼,6.2,��
2017/12/12,08:10,0.894,1.474,0.930,1.752,1.189,0.495,0.877,0.847,��,6.7,��
2017/12/12,08:20,0.893,1.472,0.930,1.749,1.186,0.496,0.879,0.846,��,7.1,��
2017/12/12,08:30,0.892,1.475,0.929,1.751,1.188,0.497,0.880,0.845,��,6.7,��
2017/12/12,08:40,0.890,1.476,0.930,1.752,1.188,0.494,0.877,0.844,��,6.4,��
2017/12/12,08:50,0.892,1.473,0.931,1.751,1.188,0.496,0.877,0.847,���쐼,7.3,�L
2017/12/12,09:00,0.892,1.477,0.929,1.750,1.189,0.495,0.880,0.846,���쐼,9.0,��
2017/12/12,09:10,0.892,1.475,0.930,1.750,1.187,0.496,0.877,0.844,���쐼,8.4,��
2017/12/12,09:20,0.892,1.475,0.929,1.754,1.188,0.496,0.877,0.845,���쐼,7.1,��
2017/12/12,09:30,0.894,1.474,0.930,1.753,1.187,0.497,0.878,0.845,���쐼,7.8,��
2017/12/12,09:40,0.894,1.477,0.930,1.753,1.190,0.497,0.873,0.845,���쐼,6.3,��
2017/12/12,09:50,0.894,1.476,0.931,1.752,1.190,0.496,0.871,0.846,��,8.4,��
2017/12/12,10:00,0.896,1.478,0.928,1.752,1.188,0.498,0.870,0.846,��,11.0,��
2017/12/12,10:10,0.895,1.474,0.929,1.754,1.189,0.498,0.871,0.845,��,10.6,�L
2017/12/12,10:20,0.893,1.479,0.932,1.754,1.190,0.498,0.874,0.846,���쐼,7.2,��
2017/12/12,10:30,0.892,1.474,0.929,1.754,1.190,0.498,0.875,0.846,���쐼,7.6,��
2017/12/12,10:40,0.895,1.477,0.931,1.753,1.191,0.498,0.874,0.846,��,6.9,��
2017/12/12,10:50,0.894,1.478,0.935,1.753,1.191,0.498,0.876,0.845,���쐼,9.0,��
2017/12/12,11:00,0.893,1.476,0.932,1.756,1.193,0.498,0.876,0.847,��,8.0,��
2017/12/12,11:10,0.893,1.477,0.932,1.755,1.194,0.497,0.875,0.847,��,8.0,��
2017/12/12,11:20,0.895,1.479,0.932,1.755,1.191,0.497,0.874,0.847,��,7.3,��
2017/12/12,11:30,0.896,1.477,0.933,1.755,1.192,0.498,0.873,0.846,��,11.7,��
2017/12/12,11:40,0.894,1.481,0.933,1.756,1.193,0.498,0.875,0.848,��,9.8,��
2017/12/12,11:50,0.895,1.477,0.932,1.756,1.194,0.497,0.875,0.847,���쐼,9.1,��
2017/12/12,12:00,0.894,1.475,0.932,1.754,1.194,0.497,0.876,0.847,��,10.3,��
2017/12/12,12:10,0.894,1.479,0.933,1.757,1.196,0.498,0.877,0.846,��,8.5,��
2017/12/12,12:20,0.893,1.480,0.933,1.758,1.191,0.498,0.879,0.847,��,7.8,��
2017/12/12,12:30,0.894,1.482,0.931,1.756,1.193,0.497,0.878,0.847,��,7.7,��
2017/12/12,12:40,0.898,1.478,0.932,1.756,1.195,0.497,0.878,0.847,��,8.6,��
2017/12/12,12:50,0.894,1.483,0.933,1.755,1.193,0.496,0.880,0.850,��,10.0,��
2017/12/12,13:00,0.896,1.479,0.932,1.755,1.193,0.497,0.880,0.847,��,8.1,��
2017/12/12,13:10,0.895,1.477,0.932,1.755,1.193,0.496,0.878,0.846,��,9.0,��
2017/12/12,13:20,0.895,1.478,0.932,1.756,1.192,0.496,0.881,0.846,��,6.6,��
2017/12/12,13:30,0.894,1.474,0.931,1.755,1.191,0.497,0.879,0.847,��,8.4,��
2017/12/12,13:40,0.896,1.478,0.932,1.756,1.193,0.496,0.879,0.848,��,8.7,��
2017/12/12,13:50,0.895,1.476,0.934,1.757,1.193,0.496,0.881,0.847,��,8.6,��
2017/12/12,14:00,0.897,1.478,0.931,1.755,1.191,0.496,0.882,0.848,��,8.0,��
2017/12/12,14:10,0.895,1.478,0.932,1.756,1.194,0.498,0.880,0.847,��,6.6,��
2017/12/12,14:20,0.895,1.478,0.931,1.756,1.192,0.497,0.882,0.847,��,7.8,��
2017/12/12,14:30,0.895,1.477,0.933,1.756,1.194,0.496,0.880,0.847,��,6.1,��
2017/12/12,14:40,0.896,1.479,0.931,1.756,1.194,0.497,0.881,0.848,��,6.6,��
2017/12/12,14:50,0.896,1.479,0.931,1.758,1.194,0.496,0.881,0.846,���k��,7.3,��
2017/12/12,15:00,0.894,1.482,0.931,1.752,1.195,0.496,0.879,0.846,��,6.6,��
2017/12/12,15:10,0.895,1.480,0.930,1.754,1.192,0.495,0.880,0.847,��,6.5,��
2017/12/12,15:20,0.895,1.480,0.931,1.754,1.193,0.495,0.879,0.846,��,6.4,��
2017/12/12,15:30,0.894,1.480,0.931,1.753,1.195,0.495,0.880,0.846,��,7.5,��
2017/12/12,15:40,0.894,1.482,0.930,1.756,1.192,0.495,0.879,0.847,��,6.9,��
2017/12/12,15:50,0.894,1.479,0.933,1.756,1.193,0.497,0.879,0.847,���쐼,6.3,��
2017/12/12,16:00,0.893,1.480,0.932,1.755,1.193,0.495,0.877,0.845,���쐼,6.5,��
2017/12/12,16:10,0.892,1.483,0.931,1.755,1.193,0.495,0.880,0.845,��,6.0,��
2017/12/12,16:20,0.892,1.482,0.932,1.756,1.191,0.495,0.877,0.847,���쐼,5.8,��
2017/12/12,16:30,0.892,1.481,0.931,1.754,1.191,0.495,0.876,0.846,���쐼,5.5,��
2017/12/12,16:40,0.892,1.483,0.929,1.756,1.194,0.495,0.879,0.844,���쐼,6.5,��
2017/12/12,16:50,0.890,1.482,0.932,1.753,1.191,0.496,0.879,0.843,���쐼,5.4,��
2017/12/12,17:00,0.892,1.480,0.931,1.753,1.191,0.496,0.878,0.844,��,5.8,��
2017/12/12,17:10,0.889,1.482,0.931,1.755,1.192,0.495,0.878,0.844,��,6.0,��
2017/12/12,17:20,0.892,1.480,0.930,1.753,1.191,0.494,0.876,0.845,��,5.9,��
2017/12/12,17:30,0.892,1.483,0.933,1.753,1.194,0.493,0.878,0.847,���쐼,6.3,��
2017/12/12,17:40,0.890,1.481,0.932,1.751,1.192,0.495,0.879,0.843,���쐼,7.2,��
2017/12/12,17:50,0.891,1.482,0.929,1.754,1.191,0.496,0.879,0.845,��,7.7,��
2017/12/12,18:00,0.891,1.481,0.930,1.758,1.190,0.495,0.878,0.845,���쐼,5.8,��
2017/12/12,18:10,0.893,1.482,0.931,1.754,1.189,0.496,0.878,0.845,���쐼,4.7,��
2017/12/12,18:20,0.892,1.481,0.932,1.754,1.192,0.495,0.878,0.846,���쐼,3.1,��
2017/12/12,18:30,0.892,1.482,0.929,1.754,1.191,0.493,0.878,0.845,-,CALM,��
2017/12/12,18:40,0.891,1.481,0.931,1.751,1.189,0.495,0.878,0.844,-,CALM,��
2017/12/12,18:50,0.889,1.480,0.930,1.753,1.190,0.494,0.878,0.846,�쐼,2.3,��
2017/12/12,19:00,0.892,1.480,0.931,1.752,1.191,0.494,0.878,0.844,���쐼,2.9,��
2017/12/12,19:10,0.891,1.482,0.930,1.753,1.191,0.495,0.877,0.843,���쐼,2.0,��
2017/12/12,19:20,0.891,1.482,0.928,1.752,1.192,0.495,0.876,0.844,���쐼,4.8,��
2017/12/12,19:30,0.891,1.480,0.930,1.753,1.190,0.495,0.878,0.846,��,5.2,��
2017/12/12,19:40,0.890,1.481,0.929,1.753,1.190,0.495,0.878,0.845,��,2.5,��
2017/12/12,19:50,0.891,1.482,0.929,1.752,1.191,0.495,0.878,0.843,���쐼,3.2,��
2017/12/12,20:00,0.890,1.483,0.931,1.751,1.188,0.495,0.878,0.845,���쐼,4.1,��
2017/12/12,20:10,0.890,1.479,0.928,1.752,1.191,0.494,0.878,0.846,�쐼,4.2,��
2017/12/12,20:20,0.889,1.478,0.930,1.752,1.191,0.494,0.877,0.845,�쐼,5.9,��
2017/12/12,20:30,0.893,1.482,0.929,1.751,1.190,0.495,0.878,0.844,�쐼,4.3,��
2017/12/12,20:40,0.890,1.477,0.929,1.753,1.191,0.493,0.877,0.844,���쐼,3.7,��
2017/12/12,20:50,0.890,1.480,0.929,1.754,1.189,0.495,0.877,0.845,���쐼,5.9,��
2017/12/12,21:00,0.891,1.480,0.930,1.751,1.191,0.494,0.877,0.844,���쐼,5.4,��
2017/12/12,21:10,0.890,1.481,0.928,1.752,1.189,0.495,0.877,0.845,���쐼,4.9,��
2017/12/12,21:20,0.890,1.480,0.928,1.753,1.191,0.494,0.878,0.846,���쐼,4.9,��
2017/12/12,21:30,0.890,1.480,0.928,1.753,1.190,0.493,0.879,0.843,���쐼,4.8,��
2017/12/12,21:40,0.889,1.478,0.931,1.753,1.189,0.495,0.877,0.844,�쐼,5.8,��
2017/12/12,21:50,0.889,1.482,0.928,1.751,1.190,0.493,0.877,0.844,�쐼,6.6,��
2017/12/12,22:00,0.889,1.480,0.931,1.754,1.190,0.495,0.877,0.846,���쐼,5.0,��
2017/12/12,22:10,0.890,1.482,0.929,1.753,1.190,0.493,0.878,0.844,��,4.7,��
2017/12/12,22:20,0.891,1.483,0.930,1.753,1.188,0.494,0.877,0.845,���쐼,6.2,��
2017/12/12,22:30,0.890,1.479,0.930,1.752,1.188,0.495,0.878,0.843,���쐼,7.2,��
2017/12/12,22:40,0.889,1.478,0.929,1.750,1.188,0.496,0.877,0.845,�쐼,7.7,��
2017/12/12,22:50,0.891,1.480,0.930,1.753,1.189,0.493,0.876,0.843,���쐼,7.5,��
2017/12/12,23:00,0.892,1.481,0.932,1.756,1.188,0.493,0.876,0.845,�쐼,6.5,��
2017/12/12,23:10,0.891,1.483,0.927,1.752,1.187,0.493,0.879,0.845,�쐼,6.4,��
2017/12/12,23:20,0.890,1.479,0.928,1.753,1.185,0.494,0.877,0.844,���쐼,4.5,��
2017/12/12,23:30,0.891,1.480,0.928,1.755,1.188,0.494,0.877,0.844,�쐼,4.9,��
2017/12/12,23:40,0.888,1.476,0.929,1.753,1.188,0.494,0.878,0.842,�쐼,5.3,��
2017/12/12,23:50,0.891,1.477,0.927,1.753,1.187,0.493,0.875,0.843,���쐼,4.7,��
